カタログに戻る

FENGYUN 1C DEB

運用中SSO
NORAD 30336·DEBRIS·🇨🇳 China

打ち上げ May 10, 1999 から Taiyuan Satellite Launch Center

Loading…

次のパス (今後24時間)

TLE

最新Source: Space-Track

元期: Sep 14, 2026, 00:57 UTC

1 30336U 99025AAX 26257.04011550  .00000383  00000-0  19970-3 0  9991
2 30336  98.5845 274.7893 0042157 292.6888 123.3019 14.19657704 15052

AllMySatでFENGYUN 1C DEBをリアルタイム追跡

Download on the App Store